Killeen/Ft Hood, TX

10:22 AM CDT on September 17, 2019 (GMT -0500)
Hood Army Air Field

Weather History for KHLR - August, 2019

Change the Weather History Date:

Wednesday, August 21, 2019

  Actual Average Record
Temperature  
Mean Temperature 86 °F -  
Max Temperature 97 °F 93 °F 105 °F (1997)
Min Temperature 76 °F 73 °F 32 °F (1996)
Cooling Degree Days 22    
Growing Degree Days 36 (Base 50)    
Moisture  
Dew Point 67 °F    
Average Humidity 55    
Maximum Humidity 81    
Minimum Humidity 35    
Precipitation  
Precipitation 0.00 in - - ()
Sea Level Pressure  
Sea Level Pressure 29.92 in    
Wind  
Wind Speed 6 mph ()    
Max Wind Speed 12 mph    
Max Gust Speed 17 mph    
Visibility 10.0 miles    
Events      
Averages and records for this station are not official NWS values.
T = Trace of Precipitation, MM = Missing Value Source: Averaged Metar Reports

Daily Weather History Graph

Daily Weather History Graph

Search for Another Location

Airport or City:

Astronomy

Aug. 21, 2019 Rise Set
Actual Time 7:00 AM CDT 8:07 PM CDT
Civil Twilight 6:35 AM CDT 8:32 PM CDT
Nautical Twilight 6:05 AM CDT 9:02 PM CDT
Astronomical Twilight 5:34 AM CDT 9:32 PM CDT
Moon 11:48 PM CDT (8/21) 12:16 PM CDT (8/21)
Length of Visible Light 13h 57m
Length of Day
13h 07m
Waning Gibbous, 69% of the Moon is Illuminated
Aug 21
Waning Gibbous
Aug 23
Last Quarter
Aug 30
New
Sep 5
First Quarter
Sep 13
Full

Hourly Weather History & Observations

Time (CDT) Temp. Heat Index Dew Point Humidity Pressure Visibility Wind Dir Wind Speed Gust Speed Precip Events Conditions
12:58 AM 82.4 °F 85.8 °F 68.9 °F 64% 29.95 in 10.0 mi SSE 6.9 mph - N/A   Clear
1:58 AM 81.0 °F 84.4 °F 69.8 °F 69% 29.95 in 10.0 mi SE 6.9 mph - N/A   Clear
2:58 AM 79.5 °F - 69.8 °F 72% 29.94 in 10.0 mi SSE 6.9 mph - N/A   Mostly Cloudy
3:58 AM 77.9 °F - 69.8 °F 76% 29.93 in 10.0 mi South 4.6 mph - N/A   Clear
4:58 AM 76.5 °F - 69.8 °F 80% 29.93 in 10.0 mi SE 5.8 mph - N/A   Clear
5:58 AM 76.6 °F - 70.0 °F 80% 29.93 in 10.0 mi South 5.8 mph - N/A   Clear
6:58 AM 76.3 °F - 70.2 °F 81% 29.94 in 10.0 mi South 5.8 mph - N/A   Clear
7:58 AM 78.1 °F - 70.7 °F 78% 29.95 in 10.0 mi SSW 6.9 mph - N/A   Clear
8:58 AM 81.5 °F 85.5 °F 70.7 °F 70% 29.96 in 10.0 mi SSW 10.4 mph - N/A   Clear
9:58 AM 84.6 °F 88.8 °F 69.6 °F 61% 29.96 in 10.0 mi South 8.1 mph - N/A   Clear
10:58 AM 88.0 °F 92.1 °F 68.7 °F 53% 29.97 in 10.0 mi South 6.9 mph - N/A   Clear
11:58 AM 91.8 °F 94.6 °F 66.6 °F 43% 29.97 in 10.0 mi SSW 4.6 mph - N/A   Clear
12:58 PM 94.1 °F 96.9 °F 65.7 °F 39% 29.95 in 10.0 mi ESE 5.8 mph - N/A   Clear
1:58 PM 96.3 °F 100.2 °F 66.9 °F 38% 29.93 in 10.0 mi South 9.2 mph 16.1 mph N/A   Partly Cloudy
2:58 PM 95.9 °F 99.0 °F 65.8 °F 37% 29.91 in 10.0 mi SSE 8.1 mph - N/A   Clear
3:58 PM 97.0 °F 100.4 °F 65.7 °F 36% 29.88 in 10.0 mi SSE 6.9 mph - N/A   Partly Cloudy
4:58 PM 94.1 °F 96.4 °F 64.6 °F 38% 29.86 in 10.0 mi SSE 8.1 mph - N/A   Partly Cloudy
5:58 PM 95.4 °F 97.1 °F 64.0 °F 35% 29.84 in 10.0 mi SE 11.5 mph 17.3 mph N/A   Partly Cloudy
6:58 PM 94.5 °F 96.1 °F 63.7 °F 36% 29.83 in 10.0 mi SSE 9.2 mph - N/A   Clear
7:58 PM 91.2 °F 91.8 °F 62.2 °F 38% 29.88 in 10.0 mi SSE 8.1 mph - N/A   Clear
8:58 PM 88.7 °F 89.8 °F 63.3 °F 43% 29.89 in 10.0 mi SE 6.9 mph - N/A   Clear
9:58 PM 87.3 °F 89.8 °F 66.4 °F 50% 29.87 in 10.0 mi SSE 8.1 mph - N/A   Clear
10:58 PM 85.3 °F 87.4 °F 66.0 °F 52% 29.89 in 10.0 mi SSE 10.4 mph - N/A   Clear
11:58 PM 83.5 °F 85.7 °F 66.2 °F 56% 29.89 in 10.0 mi South 9.2 mph - N/A   Clear